When you browse on this site, cookies collect data to enhance your experience and personalize the content and advertising you see.
Visit our Privacy Policy to learn more. By continuing to use the site, you agree to this use of cookies and data.

Hourly Weather Terpnikovo

Today, 13 August, Thursday

Time Temperature Precipitation Wind Pressure Humidity
00:00 +12°C° 0 mm 3 mps 746 mmHg 80%
01:00 +11°C° 0 mm 3 mps 746 mmHg 81%
02:00 +11°C° 0 mm 3 mps 746 mmHg 83%
03:00 +11°C° 0 mm 3 mps 746 mmHg 84%
04:00 +10°C° 0 mm 3 mps 746 mmHg 86%
05:00 +9°C° 0 mm 3 mps 745 mmHg 87%
06:00 +10°C° 0 mm 4 mps 745 mmHg 82%
07:00 +12°C° 0 mm 4 mps 745 mmHg 77%
08:00 +13°C° 0 mm 4 mps 745 mmHg 70%
09:00 +14°C° 0 mm 4 mps 746 mmHg 67%
10:00 +15°C° 0 mm 4 mps 746 mmHg 63%
11:00 +15°C° 0 mm 4 mps 746 mmHg 59%
12:00 +17°C° 0 mm 4 mps 746 mmHg 59%
13:00 +17°C° 0 mm 4 mps 746 mmHg 58%
14:00 +18°C° 0 mm 4 mps 746 mmHg 58%
15:00 +17°C° 0.1 mm 4 mps 746 mmHg 61%
16:00 +16°C° 0.1 mm 3 mps 746 mmHg 65%
17:00 +16°C° 0.1 mm 3 mps 746 mmHg 69%
18:00 +14°C° 0 mm 3 mps 746 mmHg 71%
19:00 +13°C° 0 mm 3 mps 746 mmHg 74%
20:00 +13°C° 0 mm 2 mps 746 mmHg 77%
21:00 +12°C° 0 mm 2 mps 746 mmHg 79%
22:00 +12°C° 0 mm 2 mps 746 mmHg 82%
23:00 +10°C° 0 mm 2 mps 746 mmHg 84%

Tomorrow, 14 August, Friday

Time Temperature Precipitation Wind Pressure Humidity
00:00 +9°C° 0 mm 2 mps 746 mmHg 88%
01:00 +8°C° 0 mm 2 mps 746 mmHg 91%
02:00 +8°C° 0 mm 2 mps 747 mmHg 94%
03:00 +7°C° 0 mm 2 mps 747 mmHg 94%
04:00 +7°C° 0 mm 2 mps 747 mmHg 95%
05:00 +7°C° 0 mm 2 mps 747 mmHg 95%
06:00 +9°C° 0 mm 2 mps 747 mmHg 89%
07:00 +12°C° 0 mm 2 mps 747 mmHg 82%
08:00 +13°C° 0 mm 3 mps 747 mmHg 76%
09:00 +14°C° 0 mm 3 mps 747 mmHg 69%
10:00 +16°C° 0 mm 3 mps 747 mmHg 62%
11:00 +18°C° 0 mm 4 mps 747 mmHg 56%
12:00 +18°C° 0 mm 3 mps 747 mmHg 56%
13:00 +18°C° 0 mm 3 mps 747 mmHg 55%
14:00 +18°C° 0 mm 3 mps 747 mmHg 55%
15:00 +18°C° 0 mm 3 mps 747 mmHg 58%
16:00 +18°C° 0 mm 2 mps 747 mmHg 61%
17:00 +18°C° 0 mm 2 mps 747 mmHg 64%
18:00 +16°C° 0 mm 1 mps 747 mmHg 69%
19:00 +14°C° 0 mm 1 mps 747 mmHg 75%
20:00 +12°C° 0 mm 1 mps 747 mmHg 80%
21:00 +12°C° 0 mm 1 mps 747 mmHg 79%
22:00 +12°C° 0 mm 1 mps 747 mmHg 79%
23:00 +11°C° 0 mm 1 mps 748 mmHg 78%

Day after tomorrow, 15 August, Saturday

Time Temperature Precipitation Wind Pressure Humidity
00:00 +11°C° 0 mm 1 mps 748 mmHg 80%
01:00 +11°C° 0 mm 1 mps 748 mmHg 81%
02:00 +11°C° 0 mm 1 mps 748 mmHg 83%
03:00 +11°C° 0 mm 1 mps 748 mmHg 83%
04:00 +11°C° 0 mm 1 mps 748 mmHg 84%
05:00 +11°C° 0 mm 1 mps 748 mmHg 85%
06:00 +12°C° 0 mm 1 mps 748 mmHg 80%
07:00 +14°C° 0 mm 1 mps 748 mmHg 76%
08:00 +15°C° 0 mm 1 mps 748 mmHg 71%
09:00 +16°C° 0.1 mm 2 mps 747 mmHg 70%
10:00 +17°C° 0.1 mm 2 mps 747 mmHg 69%
11:00 +18°C° 0.1 mm 2 mps 747 mmHg 68%
12:00 +17°C° 0.2 mm 2 mps 747 mmHg 74%
13:00 +17°C° 0.2 mm 2 mps 747 mmHg 80%
14:00 +16°C° 0.2 mm 2 mps 747 mmHg 85%
15:00 +16°C° 0.1 mm 2 mps 746 mmHg 87%
16:00 +16°C° 0.1 mm 2 mps 746 mmHg 89%
17:00 +16°C° 0.1 mm 2 mps 746 mmHg 91%
18:00 +15°C° 0 mm 2 mps 746 mmHg 92%
19:00 +15°C° 0 mm 1 mps 746 mmHg 93%
20:00 +15°C° 0 mm 1 mps 746 mmHg 94%
21:00 +15°C° 0 mm 1 mps 746 mmHg 94%
22:00 +15°C° 0 mm 1 mps 746 mmHg 94%
23:00 +15°C° 0 mm 1 mps 745 mmHg 94%

16 August, Sunday

Time Temperature Precipitation Wind Pressure Humidity
00:00 +14°C° 0 mm 1 mps 745 mmHg 94%
01:00 +14°C° 0 mm 2 mps 745 mmHg 94%
02:00 +14°C° 0 mm 2 mps 745 mmHg 94%
03:00 +14°C° 0 mm 2 mps 745 mmHg 95%
04:00 +14°C° 0 mm 2 mps 744 mmHg 95%
05:00 +14°C° 0 mm 2 mps 744 mmHg 96%
06:00 +15°C° 0 mm 2 mps 744 mmHg 92%
07:00 +17°C° 0 mm 2 mps 744 mmHg 89%
08:00 +18°C° 0 mm 3 mps 744 mmHg 86%
09:00 +20°C° 0.2 mm 3 mps 744 mmHg 81%
10:00 +21°C° 0.2 mm 3 mps 744 mmHg 76%
11:00 +24°C° 0.2 mm 3 mps 744 mmHg 71%
12:00 +23°C° 0.4 mm 4 mps 744 mmHg 69%
13:00 +25°C° 0.4 mm 4 mps 744 mmHg 68%
14:00 +25°C° 0.4 mm 4 mps 744 mmHg 66%
15:00 +25°C° 0.1 mm 4 mps 743 mmHg 68%
16:00 +24°C° 0.1 mm 3 mps 743 mmHg 70%
17:00 +24°C° 0.1 mm 3 mps 743 mmHg 72%
18:00 +21°C° 0 mm 3 mps 743 mmHg 77%
19:00 +19°C° 0 mm 2 mps 743 mmHg 82%
20:00 +18°C° 0 mm 2 mps 743 mmHg 87%
21:00 +17°C° 0 mm 2 mps 743 mmHg 89%
22:00 +17°C° 0 mm 3 mps 743 mmHg 91%
23:00 +16°C° 0 mm 3 mps 743 mmHg 93%

17 August, Monday

Time Temperature Precipitation Wind Pressure Humidity
00:00 +16°C° 0 mm 3 mps 743 mmHg 93%
01:00 +16°C° 0 mm 3 mps 743 mmHg 94%
02:00 +16°C° 0 mm 3 mps 743 mmHg 94%
03:00 +14°C° 0.1 mm 3 mps 743 mmHg 95%
04:00 +14°C° 0.1 mm 3 mps 743 mmHg 95%
05:00 +14°C° 0.1 mm 3 mps 743 mmHg 96%
06:00 +16°C° 0.2 mm 3 mps 743 mmHg 93%
07:00 +17°C° 0.2 mm 3 mps 743 mmHg 90%
08:00 +18°C° 0.2 mm 3 mps 743 mmHg 87%
09:00 +20°C° 0.4 mm 3 mps 743 mmHg 82%
10:00 +21°C° 0.4 mm 3 mps 743 mmHg 78%
11:00 +22°C° 0.4 mm 3 mps 743 mmHg 74%
12:00 +24°C° 0.6 mm 3 mps 743 mmHg 72%
13:00 +24°C° 0.6 mm 3 mps 742 mmHg 69%
14:00 +25°C° 0.6 mm 4 mps 742 mmHg 67%
15:00 +24°C° 0.3 mm 3 mps 742 mmHg 72%
16:00 +22°C° 0.3 mm 3 mps 742 mmHg 76%
17:00 +21°C° 0.3 mm 2 mps 742 mmHg 80%
18:00 +20°C° 0 mm 2 mps 741 mmHg 84%
19:00 +19°C° 0 mm 1 mps 741 mmHg 88%
20:00 +18°C° 0 mm 1 mps 741 mmHg 92%
21:00 +16°C° 0 mm 1 mps 741 mmHg 92%
22:00 +16°C° 0 mm 1 mps 741 mmHg 92%
23:00 +15°C° 0 mm 1 mps 741 mmHg 93%

18 August, Tuesday

Time Temperature Precipitation Wind Pressure Humidity
00:00 +14°C° 0 mm 1 mps 741 mmHg 92%
01:00 +14°C° 0 mm 1 mps 741 mmHg 92%
02:00 +13°C° 0 mm 1 mps 741 mmHg 92%
03:00 +13°C° 0 mm 1 mps 741 mmHg 92%
04:00 +12°C° 0 mm 1 mps 741 mmHg 92%
05:00 +12°C° 0 mm 1 mps 741 mmHg 93%
06:00 +13°C° 0 mm 1 mps 741 mmHg 87%
07:00 +15°C° 0 mm 2 mps 741 mmHg 82%
08:00 +16°C° 0 mm 2 mps 741 mmHg 76%
09:00 +18°C° 0 mm 2 mps 741 mmHg 70%
10:00 +20°C° 0 mm 1 mps 741 mmHg 63%
11:00 +21°C° 0 mm 1 mps 741 mmHg 56%
12:00 +22°C° 0 mm 1 mps 741 mmHg 53%
13:00 +22°C° 0 mm 1 mps 741 mmHg 51%
14:00 +23°C° 0 mm 1 mps 741 mmHg 48%
15:00 +23°C° 0 mm 1 mps 741 mmHg 52%
16:00 +22°C° 0 mm 1 mps 741 mmHg 57%
17:00 +22°C° 0 mm 1 mps 741 mmHg 61%
18:00 +20°C° 0 mm 1 mps 741 mmHg 65%
19:00 +16°C° 0 mm 0 mps 741 mmHg 69%
20:00 +13°C° 0 mm 0 mps 741 mmHg 73%
21:00 +13°C° 0 mm 0 mps 741 mmHg 74%
22:00 +14°C° 0 mm 1 mps 741 mmHg 75%
23:00 +13°C° 0 mm 1 mps 741 mmHg 76%
Show more